�N����,����,�~����,�C��,���x,�C��,����,���ϕ���,�ő�u�ԕ���,�ő厞����,���˗�,�I�_���x,�n�����x,�ő啗���N��,DTYPE
"21/07/15","00:10",0.0,22.6,93.8,1010.7,308.2,1.0,1.3,325.5,0.00,21.6,25.2,"00:01:44",1
"21/07/15","00:20",0.0,22.7,93.9,1010.7,328.3,0.7,1.3,323.8,0.00,21.7,25.2,"00:19:20",1
"21/07/15","00:30",0.0,22.7,94.0,1011.4,329.1,1.2,1.8,333.9,0.00,21.7,25.1,"00:24:48",1
"21/07/15","00:40",0.0,22.6,94.1,1010.9,305.9,1.0,1.4,316.9,0.00,21.6,25.1,"00:30:16",1
"21/07/15","00:50",0.0,22.7,94.2,1010.9,325.3,1.1,1.6,333.4,0.00,21.8,25.0,"00:40:16",1
"21/07/15","01:00",0.0,22.7,94.2,1010.7,315.4,1.1,1.4,329.8,0.00,21.8,25.1,"00:52:16",1
"21/07/15","01:10",0.0,22.8,94.2,1010.9,295.0,0.8,1.2,297.2,0.00,21.9,24.9,"01:01:44",1
"21/07/15","01:20",0.0,22.8,94.3,1010.9,305.6,1.1,1.4,321.3,0.00,21.9,25.1,"01:13:04",1
"21/07/15","01:30",0.0,22.9,94.3,1010.4,306.8,1.1,1.4,312.9,0.00,22.0,25.0,"01:22:48",1
"21/07/15","01:40",0.0,22.9,94.4,1010.4,329.2,0.7,1.1,340.1,0.00,22.0,25.1,"01:36:08",1
"21/07/15","01:50",0.0,22.9,94.4,1010.9,297.3,1.0,1.3,315.4,0.00,22.0,25.0,"01:48:16",1
"21/07/15","02:00",0.0,22.9,94.5,1011.2,290.0,1.0,1.4,321.0,0.00,22.0,25.1,"01:51:04",1
"21/07/15","02:10",0.0,22.9,94.5,1010.9,307.6,0.2,0.8,322.9,0.00,22.0,24.9,"02:04:48",1
"21/07/15","02:20",0.0,22.9,94.6,1010.9,311.6,0.7,1.1,329.6,0.00,22.0,24.8,"02:16:48",1
"21/07/15","02:30",0.0,22.9,94.6,1011.2,292.1,1.1,1.8,332.0,0.00,22.0,24.8,"02:21:20",1
"21/07/15","02:40",0.0,22.9,94.7,1010.9,265.4,0.5,1.1,269.2,0.00,22.0,24.9,"02:33:12",1
"21/07/15","02:50",0.0,22.9,94.8,1011.4,324.7,0.8,1.2,311.5,0.00,22.1,24.9,"02:49:44",1
"21/07/15","03:00",0.0,23.1,94.7,1011.4,325.1,1.3,2.0,327.5,0.00,22.2,24.9,"02:57:44",1
"21/07/15","03:10",0.0,23.1,94.8,1011.4,315.4,1.1,1.7,301.8,0.00,22.3,25.0,"03:00:24",1
"21/07/15","03:20",0.0,23.1,94.9,1011.4,329.2,1.1,1.6,337.8,0.00,22.3,24.8,"03:11:04",1
"21/07/15","03:30",0.0,23.2,94.9,1011.4,318.6,0.8,1.1,298.5,0.00,22.4,24.9,"03:26:08",1
"21/07/15","03:40",0.0,23.1,94.9,1011.4,316.8,1.0,1.6,325.6,0.00,22.3,24.9,"03:34:48",1
"21/07/15","03:50",0.0,23.2,95.0,1011.6,324.3,0.8,1.2,350.1,0.00,22.4,24.9,"03:47:28",1
"21/07/15","04:00",0.2,23.2,95.0,1012.1,326.8,0.8,1.4,334.3,0.00,22.4,25.0,"03:56:56",1
"21/07/15","04:10",0.4,23.2,95.0,1011.9,314.0,0.6,1.2,339.1,0.00,22.4,25.0,"04:09:44",1
"21/07/15","04:20",0.2,23.1,95.1,1012.1,287.0,0.6,0.9,268.3,0.00,22.3,25.0,"04:12:40",1
"21/07/15","04:30",0.0,23.0,95.1,1012.3,313.1,0.5,1.2,341.4,0.00,22.2,25.0,"04:27:12",1
"21/07/15","04:40",0.0,22.9,95.2,1012.3,291.0,0.5,0.9,333.7,0.00,22.1,25.1,"04:30:24",1
"21/07/15","04:50",0.2,22.9,95.2,1012.3,294.0,0.5,1.1,314.2,0.00,22.1,24.7,"04:42:24",1
"21/07/15","05:00",0.2,22.8,95.3,1012.1,304.7,0.7,1.2,338.6,0.00,22.0,24.6,"04:56:24",1
"21/07/15","05:10",0.0,22.8,95.3,1012.3,312.1,0.7,1.2,311.1,0.00,22.0,24.8,"05:02:08",1
"21/07/15","05:20",0.0,22.8,95.4,1012.6,313.4,0.7,1.3,340.7,0.00,22.1,24.6,"05:16:56",1
"21/07/15","05:30",0.0,22.8,95.4,1012.6,313.9,0.7,1.1,322.2,0.00,22.1,24.7,"05:29:28",1
"21/07/15","05:40",0.0,22.8,95.4,1012.6,291.7,0.6,1.2,326.7,0.00,22.1,24.7,"05:30:08",1
"21/07/15","05:50",0.0,22.8,95.5,1012.8,308.6,0.7,1.3,308.5,0.00,22.1,24.6,"05:44:56",1
"21/07/15","06:00",0.0,22.8,95.5,1013.0,277.7,0.6,1.0,259.8,0.00,22.1,24.8,"05:51:04",1
"21/07/15","06:10",0.0,22.9,95.5,1012.8,288.8,0.5,0.9,315.1,0.00,22.2,24.7,"06:09:04",1
"21/07/15","06:20",0.0,23.1,95.5,1013.0,332.9,0.6,0.9,328.2,0.01,22.4,24.8,"06:12:08",1
"21/07/15","06:30",0.0,23.2,95.5,1012.8,336.2,0.6,0.9,337.9,0.00,22.5,24.6,"06:27:28",1
"21/07/15","06:40",0.2,23.2,95.5,1013.3,284.6,0.1,0.6,267.0,0.00,22.5,24.7,"06:31:36",1
"21/07/15","06:50",0.0,23.2,95.5,1013.3,270.4,0.2,0.6,263.5,0.00,22.5,24.5,"06:42:40",1
"21/07/15","07:00",0.0,23.2,95.5,1013.0,196.2,0.5,1.1,256.2,0.01,22.5,24.6,"06:59:44",1
"21/07/15","07:10",0.0,23.2,95.6,1013.5,232.4,0.6,1.6,239.7,0.03,22.5,24.8,"07:00:48",1
"21/07/15","07:20",0.0,23.4,95.6,1013.3,26.3,0.3,1.2,42.1,0.04,22.7,24.7,"07:11:20",1
"21/07/15","07:30",0.0,23.5,95.6,1013.3,76.4,0.1,0.5,65.6,0.04,22.8,24.7,"07:23:12",1
"21/07/15","07:40",0.0,23.7,95.4,1013.3,270.3,0.3,0.6,304.0,0.03,23.0,24.6,"07:32:48",1
"21/07/15","07:50",0.0,23.8,95.6,1013.3,312.4,0.6,1.1,343.0,0.07,23.1,24.7,"07:49:12",1
"21/07/15","08:00",0.0,24.0,95.6,1013.3,341.1,0.8,2.0,335.2,0.09,23.3,24.7,"07:53:52",1
"21/07/15","08:10",0.0,24.3,95.5,1013.0,325.3,0.5,1.6,341.3,0.09,23.6,24.6,"08:01:28",1
"21/07/15","08:20",0.0,24.5,95.5,1012.8,313.5,0.7,1.7,343.6,0.12,23.8,24.7,"08:11:28",1
"21/07/15","08:30",0.0,24.7,95.3,1013.0,295.4,0.7,1.4,331.4,0.09,23.9,24.7,"08:20:56",1
"21/07/15","08:40",0.0,23.3,94.7,1013.3,197.9,1.5,3.3,221.0,0.05,22.4,24.7,"08:35:52",1
"21/07/15","08:50",0.0,22.3,94.8,1013.5,161.6,1.8,2.6,189.7,0.02,21.5,24.7,"08:40:32",1
"21/07/15","09:00",0.0,22.2,95.2,1013.8,158.2,1.5,2.9,189.8,0.03,21.4,24.6,"08:53:20",1
"21/07/15","09:10",0.0,22.2,94.8,1013.5,158.8,0.8,2.0,186.1,0.04,21.4,24.7,"09:06:00",1
"21/07/15","09:20",0.0,22.3,94.9,1013.5,206.4,1.0,2.5,223.7,0.07,21.5,24.7,"09:16:48",1
"21/07/15","09:30",0.0,22.9,94.8,1013.8,201.4,0.2,1.4,130.1,0.06,22.1,24.6,"09:27:12",1
"21/07/15","09:40",0.0,23.0,94.5,1013.5,218.1,0.6,1.3,240.4,0.08,22.1,24.6,"09:36:00",1
"21/07/15","09:50",0.0,23.3,94.5,1013.5,169.2,0.5,1.1,226.5,0.11,22.4,24.6,"09:44:00",1
"21/07/15","10:00",0.0,23.7,94.2,1013.3,65.2,0.2,0.9,108.7,0.14,22.8,24.8,"09:56:16",1
"21/07/15","10:10",0.0,24.0,94.0,1013.8,135.3,0.3,1.3,147.2,0.17,23.0,24.7,"10:02:40",1
"21/07/15","10:20",0.0,23.7,92.8,1013.8,359.7,0.6,2.2,343.1,0.20,22.5,24.8,"10:18:40",1
"21/07/15","10:30",0.0,23.9,92.4,1013.8,351.1,1.1,2.2,355.1,0.19,22.6,24.7,"10:24:08",1
"21/07/15","10:40",0.0,24.3,91.7,1013.8,329.8,1.0,2.0,338.1,0.27,22.9,24.6,"10:35:44",1
"21/07/15","10:50",0.0,25.7,89.2,1013.0,266.9,0.6,1.3,346.6,0.55,23.8,24.8,"10:44:24",1
"21/07/15","11:00",0.0,26.7,85.3,1012.1,282.8,0.8,2.0,264.7,0.60,24.1,24.8,"10:50:40",1
"21/07/15","11:10",0.0,27.9,81.1,1012.6,152.2,1.0,3.5,202.3,0.58,24.4,24.7,"11:03:20",1
"21/07/15","11:20",0.0,27.7,76.6,1013.0,171.0,1.6,3.3,202.9,0.45,23.3,25.0,"11:16:24",1
"21/07/15","11:30",0.0,28.0,75.9,1012.8,172.2,1.3,2.7,175.0,0.57,23.4,25.0,"11:24:00",1
"21/07/15","11:40",0.0,29.3,74.0,1012.8,141.4,0.7,2.4,147.7,0.60,24.2,25.0,"11:34:56",1
"21/07/15","11:50",0.0,29.7,69.6,1013.3,184.7,0.8,2.6,247.2,0.57,23.6,25.1,"11:49:20",1
"21/07/15","12:00",0.0,29.8,69.3,1012.8,139.0,1.0,3.7,119.8,0.47,23.6,25.3,"11:54:48",1
"21/07/15","12:10",0.0,30.3,67.7,1012.8,36.4,1.0,2.4,345.9,0.57,23.7,25.1,"12:00:08",1
"21/07/15","12:20",0.0,30.4,65.6,1012.6,101.7,1.0,2.7,137.0,0.56,23.3,25.2,"12:14:16",1
"21/07/15","12:30",0.0,30.7,65.5,1012.1,135.9,1.2,2.8,174.7,0.56,23.5,25.3,"12:21:36",1
"21/07/15","12:40",0.0,30.6,65.1,1012.3,308.8,1.0,3.2,327.9,0.58,23.3,25.5,"12:37:12",1
"21/07/15","12:50",0.0,31.6,64.3,1012.6,303.9,0.8,2.4,9.7,0.58,24.1,25.4,"12:40:40",1
"21/07/15","13:00",0.0,31.5,60.8,1012.3,329.3,0.8,2.1,7.6,0.56,23.1,25.6,"12:52:56",1
"21/07/15","13:10",0.0,31.9,59.5,1012.8,6.3,0.7,2.1,3.1,0.54,23.1,25.5,"13:05:12",1
"21/07/15","13:20",0.0,32.1,57.2,1012.6,20.6,1.1,2.7,348.5,0.54,22.6,25.8,"13:12:56",1
"21/07/15","13:30",0.0,32.4,56.4,1012.8,126.3,0.7,2.2,18.5,0.57,22.7,25.7,"13:25:04",1
"21/07/15","13:40",0.0,32.3,55.2,1012.8,37.1,1.2,2.2,26.5,0.52,22.2,25.6,"13:30:24",1
"21/07/15","13:50",0.0,32.3,57.5,1012.1,70.8,1.0,2.5,9.6,0.51,22.9,25.8,"13:44:08",1
"21/07/15","14:00",0.0,32.9,59.7,1012.3,124.1,0.8,2.4,115.0,0.50,24.1,25.8,"13:57:20",1
"21/07/15","14:10",0.0,32.8,54.8,1012.3,135.8,1.1,2.6,94.2,0.58,22.5,25.9,"14:00:32",1
"21/07/15","14:20",0.0,32.7,53.8,1012.8,150.5,1.2,3.2,170.8,0.59,22.2,26.1,"14:13:28",1
"21/07/15","14:30",0.0,32.7,53.9,1012.6,221.8,0.7,1.4,174.7,0.40,22.2,26.1,"14:23:44",1
"21/07/15","14:40",0.0,32.8,55.9,1012.3,69.1,0.8,3.1,331.0,0.46,22.9,26.2,"14:31:04",1
"21/07/15","14:50",0.0,33.1,51.3,1012.1,20.6,1.0,2.2,14.8,0.42,21.7,26.2,"14:46:40",1
"21/07/15","15:00",0.0,32.2,53.8,1011.9,300.5,0.5,1.3,50.7,0.11,21.7,26.5,"14:51:28",1
"21/07/15","15:10",0.0,31.8,57.1,1011.4,77.1,0.6,1.4,112.5,0.17,22.3,26.6,"15:08:32",1
"21/07/15","15:20",0.0,30.6,59.3,1011.4,140.3,1.5,3.4,133.9,0.14,21.8,26.5,"15:11:12",1
"21/07/15","15:30",0.0,30.5,60.8,1010.9,121.2,0.7,2.4,132.3,0.14,22.1,26.3,"15:22:32",1
"21/07/15","15:40",0.0,31.9,59.6,1011.2,126.6,1.2,2.5,124.1,0.40,23.1,26.5,"15:32:40",1
"21/07/15","15:50",0.0,30.9,61.0,1011.4,131.1,1.3,3.1,157.3,0.13,22.5,26.3,"15:48:32",1
"21/07/15","16:00",0.0,30.1,63.5,1011.2,119.2,1.1,4.3,133.4,0.07,22.5,26.5,"15:50:08",1
"21/07/15","16:10",0.0,30.0,62.6,1010.4,81.0,0.8,1.9,81.8,0.05,22.1,26.6,"16:01:52",1
"21/07/15","16:20",0.0,30.1,64.0,1010.4,90.8,0.3,1.2,48.0,0.06,22.6,26.7,"16:14:24",1
"21/07/15","16:30",0.0,29.8,64.0,1010.0,100.8,0.8,2.4,123.7,0.04,22.3,26.7,"16:25:52",1
"21/07/15","16:40",0.0,28.1,67.3,1010.7,188.5,3.9,9.5,218.9,0.00,21.5,26.7,"16:37:28",1
"21/07/15","16:50",0.2,26.9,73.3,1010.2,157.8,2.7,7.1,200.8,0.00,21.8,26.6,"16:41:20",1
"21/07/15","17:00",0.4,25.5,79.3,1011.2,69.2,1.2,4.4,74.3,0.00,21.7,26.7,"16:56:00",1
"21/07/15","17:10",0.6,24.7,82.8,1011.2,358.6,1.2,2.7,350.6,0.00,21.6,26.6,"17:00:02",1
"21/07/15","17:20",0.0,24.1,84.9,1011.4,340.5,2.8,5.4,345.3,0.00,21.4,26.6,"17:17:52",1
"21/07/15","17:30",0.0,24.1,86.1,1011.2,311.6,1.3,3.1,331.9,0.01,21.7,26.7,"17:20:08",1
"21/07/15","17:40",0.0,23.8,86.9,1011.4,311.5,1.5,2.9,346.6,0.02,21.5,26.7,"17:36:40",1
"21/07/15","17:50",0.0,23.8,87.4,1011.2,315.8,1.1,2.9,345.5,0.02,21.6,26.4,"17:46:24",1
"21/07/15","18:00",0.0,23.9,87.9,1011.4,342.5,1.2,2.1,327.4,0.02,21.8,26.3,"17:57:36",1
"21/07/15","18:10",0.0,23.9,88.2,1011.9,319.4,1.1,2.1,331.6,0.02,21.9,26.5,"18:00:40",1
"21/07/15","18:20",0.0,23.7,88.5,1011.9,294.1,0.8,1.8,329.6,0.02,21.7,26.5,"18:17:52",1
"21/07/15","18:30",0.0,23.6,88.8,1012.1,313.8,1.2,2.1,338.1,0.02,21.7,26.3,"18:21:36",1
"21/07/15","18:40",0.0,23.5,89.1,1012.3,302.7,1.0,2.0,314.3,0.01,21.6,26.4,"18:34:08",1
"21/07/15","18:50",0.0,23.6,89.2,1012.3,318.1,1.3,2.5,314.1,0.00,21.8,26.3,"18:49:28",1
"21/07/15","19:00",0.0,23.5,89.4,1012.6,310.1,1.3,2.7,329.7,0.00,21.7,26.3,"18:51:04",1
"21/07/15","19:10",0.0,23.6,89.5,1012.6,301.5,1.1,2.1,324.5,0.00,21.8,26.2,"19:01:44",1
"21/07/15","19:20",0.0,23.5,89.7,1012.6,312.7,1.1,2.0,335.7,0.00,21.7,26.3,"19:12:24",1
"21/07/15","19:30",0.0,23.5,89.8,1013.0,317.3,1.0,1.6,331.1,0.00,21.8,26.3,"19:22:32",1
"21/07/15","19:40",0.0,23.3,90.0,1012.6,282.7,0.8,1.6,310.4,0.00,21.6,26.2,"19:37:44",1
"21/07/15","19:50",0.0,23.3,90.2,1012.6,304.7,1.0,1.6,336.8,0.00,21.6,26.0,"19:41:20",1
"21/07/15","20:00",0.0,23.3,90.5,1012.6,318.1,1.6,3.2,341.1,0.00,21.7,26.1,"19:56:48",1
"21/07/15","20:10",0.0,23.3,90.7,1013.0,310.6,1.2,2.1,328.2,0.00,21.7,26.2,"20:00:08",1
"21/07/15","20:20",0.0,23.2,90.8,1013.0,318.6,1.1,1.8,315.9,0.00,21.7,26.1,"20:19:52",1
"21/07/15","20:30",0.0,23.1,91.0,1013.0,299.4,1.2,2.4,320.0,0.00,21.6,26.2,"20:23:44",1
"21/07/15","20:40",0.0,23.1,91.2,1012.8,304.9,1.0,1.4,331.0,0.00,21.6,26.1,"20:37:36",1
"21/07/15","20:50",0.0,23.1,91.5,1013.3,311.9,1.3,2.4,338.5,0.00,21.7,26.2,"20:49:12",1
"21/07/15","21:00",0.0,23.0,91.6,1013.3,303.9,1.1,2.2,327.8,0.00,21.6,26.1,"20:50:40",1
"21/07/15","21:10",0.0,22.9,91.7,1013.3,333.4,0.8,1.6,338.9,0.00,21.5,25.8,"21:01:12",1
"21/07/15","21:20",0.0,22.7,91.8,1013.8,310.6,0.8,1.1,320.5,0.00,21.3,25.9,"21:13:20",1
"21/07/15","21:30",0.0,22.6,92.0,1013.5,301.5,0.8,1.3,312.8,0.00,21.3,25.9,"21:28:00",1
"21/07/15","21:40",0.0,22.6,92.1,1013.0,317.6,1.1,1.4,329.9,0.00,21.3,25.8,"21:33:28",1
"21/07/15","21:50",0.0,22.5,92.3,1013.3,317.2,1.0,1.4,325.7,0.00,21.2,25.8,"21:41:36",1
"21/07/15","22:00",0.0,22.4,92.5,1013.3,290.9,0.8,1.6,337.3,0.00,21.2,25.7,"21:59:44",1
"21/07/15","22:10",0.0,22.5,92.6,1013.3,314.0,1.1,1.8,335.8,0.00,21.3,25.8,"22:00:08",1
"21/07/15","22:20",0.0,22.5,92.7,1013.3,305.8,1.0,1.7,325.1,0.00,21.3,25.7,"22:17:20",1
"21/07/15","22:30",0.0,22.6,92.8,1013.5,324.2,1.2,1.7,325.3,0.00,21.4,25.6,"22:21:36",1
"21/07/15","22:40",0.0,22.6,92.9,1013.8,327.1,1.2,1.9,341.3,0.00,21.4,25.7,"22:32:32",1
"21/07/15","22:50",0.0,22.5,93.0,1013.5,317.4,1.0,1.2,322.5,0.00,21.4,25.6,"22:45:36",1
"21/07/15","23:00",0.0,22.3,93.1,1013.3,304.0,0.8,1.2,305.5,0.00,21.2,25.4,"22:56:24",1
"21/07/15","23:10",0.0,22.2,93.3,1013.5,302.8,1.0,1.4,308.6,0.00,21.1,25.6,"23:07:52",1
"21/07/15","23:20",0.0,22.3,93.4,1013.3,310.5,1.2,2.4,333.3,0.00,21.2,25.6,"23:16:16",1
"21/07/15","23:30",0.0,22.3,93.5,1013.3,321.9,1.1,2.0,323.9,0.00,21.2,25.4,"23:20:56",1
"21/07/15","23:40",0.0,22.1,93.5,1013.3,313.4,0.8,1.4,327.1,0.00,21.0,25.4,"23:30:56",1
"21/07/15","23:50",0.0,22.0,93.7,1013.0,289.4,0.7,1.1,277.5,0.00,21.0,25.3,"23:42:40",1
"21/07/15","24:00",0.0,22.0,93.8,1013.3,294.4,0.8,1.2,263.5,0.00,21.0,25.6,"23:50:24",1
